Date String (YYYY-MM-DD hh:mm:ss) UTC,Instrument flags,Ambient pressure (hPa),Sample flow (lpm),Bypass flow (lpm),Sample temperature (°C),Ambient temperature (°C),ASC tube jacket temperature (°C),LED temperature (°C),Box temperature (°C),Sample RH (%),Span deviation,Mass concentration (μg/m³),Mass concentration (μg/m³),Mass concentration (μg/m³)
DateTimeUTC,F1_M11,P_M11,Q1_M11,Q2_M11,T1_M11,T2_M11,T3_M11,T4_M11,T5_M11,U1_M11,ZSPAN_M11,X0_M11,X2_M11,X1_M11
2022-01-21 20:00:00,,0828.9,5.01,0.00,21.7,22.7,00.0,30.8,23.7,17.6,-002.4,0012.67,0009.04,0008.76
2022-01-21 20:01:00,,0829.1,4.99,0.00,21.9,22.9,00.0,30.8,23.9,17.5,-002.2,0012.72,0009.06,0008.75
2022-01-21 20:02:00,,0829.2,5.00,0.00,21.9,22.6,00.0,30.8,23.8,17.6,-002.2,0012.74,0009.07,0008.77
2022-01-21 20:03:00,,0829.0,5.00,0.00,21.9,22.3,00.0,30.8,23.7,17.7,-002.1,0012.69,0009.05,0008.77
2022-01-21 20:04:00,,0829.1,5.01,0.00,21.9,22.0,00.0,30.8,23.6,17.7,-002.1,0012.78,0009.09,0008.81
2022-01-21 20:05:00,,0829.2,5.00,0.00,21.8,21.7,00.0,30.8,23.4,17.8,-002.1,0012.85,0009.14,0008.87
2022-01-21 20:06:00,,0829.2,4.99,0.00,21.8,21.5,00.0,30.8,23.4,17.9,-001.9,0012.88,0009.19,0008.93
2022-01-21 20:07:00,,0829.0,5.00,0.00,21.7,21.3,00.0,30.8,23.3,18.0,-001.8,0012.99,0009.29,0009.03
2022-01-21 20:08:00,,0828.8,5.01,0.00,21.7,21.2,00.0,30.8,23.3,18.2,-002.0,0013.37,0009.43,0009.14
2022-01-21 20:09:00,,0828.9,4.98,0.00,21.7,21.1,00.0,30.8,23.2,18.4,-001.9,0013.67,0009.56,0009.25
2022-01-21 20:10:00,,0828.9,5.01,0.00,21.6,21.0,00.0,30.8,23.2,18.6,-002.0,0013.95,0009.74,0009.38
2022-01-21 20:11:00,,0829.0,5.00,0.00,21.6,21.0,00.0,30.7,23.1,18.6,-002.1,0014.22,0009.91,0009.53
2022-01-21 20:12:00,,0828.9,4.99,0.00,21.5,20.9,00.0,30.7,23.1,18.6,-002.2,0014.48,0010.08,0009.72
2022-01-21 20:13:00,,0828.9,5.00,0.00,21.5,20.8,00.0,30.7,23.1,18.7,-002.1,0014.75,0010.28,0009.91
2022-01-21 20:14:00,,0828.9,5.00,0.00,21.5,20.8,00.0,30.7,23.0,18.8,-002.2,0015.31,0010.50,0010.09
2022-01-21 20:15:00,,0828.8,5.00,0.00,21.5,20.7,00.0,30.7,23.0,19.0,-002.3,0015.78,0010.65,0010.24
2022-01-21 20:16:00,,0828.8,5.00,0.00,21.4,20.7,00.0,30.6,23.0,19.1,-002.4,0015.99,0010.80,0010.37
2022-01-21 20:17:00,,0829.1,4.99,0.00,21.4,20.7,00.0,30.6,22.9,19.1,-002.6,0016.19,0010.93,0010.47
2022-01-21 20:18:00,,0828.9,5.02,0.00,21.4,20.6,00.0,30.6,22.9,19.2,-002.6,0016.37,0011.04,0010.55
2022-01-21 20:19:00,,0829.0,4.99,0.00,21.3,20.6,00.0,30.6,22.9,19.2,-002.4,0016.21,0011.05,0010.58
2022-01-21 20:20:00,,0828.9,5.00,0.00,21.4,21.3,00.0,30.6,23.1,19.1,-002.4,0016.13,0011.04,0010.58
2022-01-21 20:21:00,,0828.8,5.01,0.00,21.6,22.3,00.0,30.6,23.5,18.9,-002.4,0016.08,0010.99,0010.57
2022-01-21 20:22:00,,0829.2,4.99,0.00,21.8,22.9,00.0,30.7,23.8,18.7,-002.4,0016.00,0010.96,0010.55
2022-01-21 20:23:00,,0829.3,5.00,0.00,21.8,22.6,00.0,30.7,23.7,18.9,-002.5,0015.88,0010.88,0010.47
2022-01-21 20:24:00,,0829.2,5.01,0.00,21.8,22.3,00.0,30.7,23.6,19.0,-002.5,0015.74,0010.80,0010.41
2022-01-21 20:25:00,,0828.9,4.99,0.00,21.8,22.0,00.0,30.7,23.5,19.1,-002.6,0015.28,0010.67,0010.31
2022-01-21 20:26:00,,0828.7,5.00,0.00,21.7,21.7,00.0,30.7,23.4,19.2,-002.6,0014.95,0010.61,0010.23
2022-01-21 20:27:00,,0828.7,5.01,0.00,21.7,21.5,00.0,30.7,23.3,19.3,-002.4,0014.79,0010.48,0010.09
2022-01-21 20:28:00,,0828.7,4.99,0.00,21.6,21.3,00.0,30.7,23.2,19.3,-002.3,0014.64,0010.35,0009.96
2022-01-21 20:29:00,,0828.7,5.01,0.00,21.6,21.1,00.0,30.7,23.1,19.4,-002.4,0014.36,0010.18,0009.81
2022-01-21 20:30:00,,0828.7,4.99,0.00,21.5,21.0,00.0,30.7,23.1,19.6,-002.4,0014.18,0010.05,0009.69
2022-01-21 20:31:00,,0828.7,5.00,0.00,21.5,20.9,00.0,30.7,23.0,19.7,-002.4,0013.98,0009.95,0009.60
2022-01-21 20:32:00,,0828.7,5.02,0.00,21.5,20.8,00.0,30.6,23.0,19.7,-002.3,0014.01,0009.87,0009.48
2022-01-21 20:33:00,,0828.7,4.98,0.00,21.4,20.8,00.0,30.6,23.0,19.9,-002.2,0014.41,0009.75,0009.36
2022-01-21 20:34:00,,0828.7,5.00,0.00,21.4,20.7,00.0,30.6,23.0,19.9,-002.4,0014.37,0009.67,0009.28
2022-01-21 20:35:00,,0828.7,5.00,0.00,21.4,20.7,00.0,30.6,23.0,20.0,-002.6,0014.35,0009.61,0009.20
2022-01-21 20:36:00,,0828.7,4.99,0.00,21.4,20.7,00.0,30.6,22.9,20.1,-002.6,0014.32,0009.56,0009.14
2022-01-21 20:37:00,,0828.7,5.01,0.00,21.3,20.7,00.0,30.5,22.9,20.0,-002.5,0014.10,0009.44,0009.05
2022-01-21 20:38:00,,0828.7,4.99,0.00,21.3,20.6,00.0,30.5,22.9,20.0,-002.5,0014.02,0009.40,0009.01
2022-01-21 20:39:00,,0828.7,4.99,0.00,21.3,20.6,00.0,30.5,22.8,19.9,-002.3,0013.93,0009.36,0008.99
2022-01-21 20:40:00,,0828.7,5.00,0.00,21.2,20.5,00.0,30.5,22.7,19.9,-002.2,0013.89,0009.34,0008.98
2022-01-21 20:41:00,,0828.8,5.02,0.00,21.2,20.6,00.0,30.4,22.7,20.0,-002.2,0013.89,0009.33,0008.96
2022-01-21 20:42:00,,0828.8,5.00,0.00,21.3,21.4,00.0,30.5,23.0,19.9,-002.2,0013.90,0009.33,0008.97
2022-01-21 20:43:00,,0828.7,4.99,0.00,21.5,22.3,00.0,30.5,23.4,19.7,-002.1,0013.65,0009.31,0008.97
2022-01-21 20:44:00,,0828.7,5.01,0.00,21.6,22.8,00.0,30.6,23.6,19.5,-002.1,0013.21,0009.33,0008.96
2022-01-21 20:45:00,,0828.7,5.00,0.00,21.7,22.4,00.0,30.6,23.5,19.4,-001.8,0013.15,0009.30,0008.92
2022-01-21 20:46:00,,0828.7,5.00,0.00,21.6,22.0,00.0,30.6,23.3,19.5,-001.3,0013.10,0009.27,0008.88
2022-01-21 20:47:00,,0828.7,4.99,0.00,21.6,21.7,00.0,30.6,23.2,19.5,-001.3,0012.97,0009.20,0008.84
2022-01-21 20:48:00,,0828.7,5.00,0.00,21.5,21.5,00.0,30.6,23.1,19.6,-001.5,0013.00,0009.20,0008.81
2022-01-21 20:49:00,,0828.7,5.01,0.00,21.5,21.2,00.0,30.6,23.0,19.7,-001.5,0013.08,0009.21,0008.81
2022-01-21 20:50:00,,0828.7,4.99,0.00,21.4,21.1,00.0,30.5,23.0,19.8,-001.7,0013.15,0009.22,0008.81
2022-01-21 20:51:00,,0828.7,5.00,0.00,21.4,20.9,00.0,30.5,23.0,19.9,-001.7,0013.12,0009.21,0008.80
2022-01-21 20:52:00,,0828.8,5.01,0.00,21.4,20.8,00.0,30.5,22.9,19.9,-001.6,0013.22,0009.16,0008.79
2022-01-21 20:53:00,,0828.6,4.99,0.00,21.3,20.7,00.0,30.5,22.8,20.0,-002.0,0013.18,0009.11,0008.74
2022-01-21 20:54:00,,0828.7,5.01,0.00,21.3,20.7,00.0,30.5,22.8,20.1,-002.2,0013.09,0009.05,0008.70
2022-01-21 20:55:00,,0828.7,4.99,0.00,21.2,20.6,00.0,30.4,22.7,20.2,-002.2,0012.91,0008.96,0008.66
2022-01-21 20:56:00,,0828.7,5.01,0.00,21.2,20.5,00.0,30.4,22.7,20.3,-002.4,0012.78,0008.90,0008.62
2022-01-21 20:57:00,,0828.7,4.99,0.00,21.1,20.5,00.0,30.4,22.7,20.3,-002.6,0012.70,0008.84,0008.56
2022-01-21 20:58:00,,0828.6,5.01,0.00,21.1,20.5,00.0,30.4,22.6,20.4,-002.3,0012.65,0008.79,0008.51
2022-01-21 20:59:00,,0828.7,5.00,0.00,21.2,21.3,00.0,30.4,22.9,20.3,-002.2,0012.55,0008.72,0008.45
